Regional Weather Roundup
Issued by NWS

Home | Current Version | Previous Version | Graphics & Text | Print | Product List | Glossary On
Versions: 1 2 3 4 5 6 7 8 9 10 11 12 13 14 15 16 17 18 19 20 21 22 23 24 25 26 27 28 29 30 31 32 33 34 35 36 37 38 39 40 41 42 43 44 45 46 47 48 49 50
000
ASUS44 KMEG 171000
RWRTN
TENNESSEE HOURLY STATE WEATHER ROUNDUP
NATIONAL WEATHER SERVICE MEMPHIS TN
500 AM CDT TUE OCT 17 2017

TNZ002-004-019-021-049-052-054-088>092-171100-
WEST TENNESSEE

CITY           SKY/WX    TMP DP  RH WIND       PRES   REMARKS
MEMPHIS INTL   CLEAR     50  41  71 VRB6      30.30R
NWS MEMPHIS      N/A     43 N/A N/A MISG        N/A
JACKSON        CLEAR     39  38  96 NW3       30.33R
$$

TNZ008-025-027-028-033-062-065-066-171100-
NORTH MIDDLE TENNESSEE

CITY           SKY/WX    TMP DP  RH WIND       PRES   REMARKS
NASHVILLE      CLEAR     43  41  93 CALM      30.33R
CLARKSVILLE    CLEAR     41  38  89 CALM      30.34R
SMYRNA         CLEAR     40  40 100 CALM      30.34R
CROSSVILLE     CLEAR     40  37  89 CALM      30.32R
$$

TNZ061-075-076-078-094-096-097-171100-
SOUTH MIDDLE TENNESSEE

CITY           SKY/WX    TMP DP  RH WIND       PRES   REMARKS
$$

TNZ017-018-042-046-047-171100-
NORTHEAST TENNESSEE

CITY           SKY/WX    TMP DP  RH WIND       PRES   REMARKS
TRI CITIES     FOG       38  38 100 CALM      30.34R VSB 1/4
$$

TNZ012-013-036-069-073-074-171100-
CENTRAL EAST TENNESSEE

CITY           SKY/WX    TMP DP  RH WIND       PRES   REMARKS
KNOXVILLE      CLEAR     44  43  96 E5        30.31R
$$

TNZ083-085-099-171100-
SOUTHEAST TENNESSEE

CITY           SKY/WX    TMP DP  RH WIND       PRES   REMARKS
CHATTANOOGA    CLEAR     49  41  74 NE5       30.31R
$$

SKY/WX REPORTED AS FAIR MEANS FEW OR NO CLOUDS BELOW
12 THOUSAND FEET.




USA.gov is the U.S. government's official web portal to all federal, state and local government web resources and services.